Hourly Weather Acquasparta

Today, 29 July, Thursday

Time Temperature Precipitation Wind Pressure Humidity
00:00 +22°C° 0 mm 1 mps 733 mmHg 50%
01:00 +22°C° 0 mm 1 mps 733 mmHg 52%
02:00 +22°C° 0 mm 1 mps 732 mmHg 52%
03:00 +21°C° 0 mm 1 mps 732 mmHg 52%
04:00 +21°C° 0 mm 1 mps 732 mmHg 52%
05:00 +23°C° 0 mm 1 mps 732 mmHg 48%
06:00 +25°C° 0 mm 1 mps 732 mmHg 43%
07:00 +24°C° 0 mm 0 mps 733 mmHg 38%
08:00 +29°C° 0 mm 1 mps 733 mmHg 33%
09:00 +31°C° 0 mm 2 mps 733 mmHg 27%
10:00 +35°C° 0 mm 3 mps 733 mmHg 21%
11:00 +36°C° 0 mm 3 mps 733 mmHg 21%
12:00 +37°C° 0 mm 4 mps 732 mmHg 21%
13:00 +40°C° 0 mm 4 mps 732 mmHg 21%
14:00 +39°C° 0 mm 5 mps 732 mmHg 22%
15:00 +39°C° 0 mm 5 mps 731 mmHg 24%
16:00 +39°C° 0 mm 6 mps 731 mmHg 25%
17:00 +35°C° 0 mm 5 mps 731 mmHg 32%
18:00 +33°C° 0 mm 4 mps 731 mmHg 40%
19:00 +30°C° 0 mm 3 mps 731 mmHg 47%
20:00 +28°C° 0 mm 2 mps 731 mmHg 56%
21:00 +25°C° 0 mm 2 mps 732 mmHg 65%
22:00 +23°C° 0 mm 1 mps 732 mmHg 74%
23:00 +23°C° 0 mm 1 mps 732 mmHg 76%

Tomorrow, 30 July, Friday

Time Temperature Precipitation Wind Pressure Humidity
00:00 +22°C° 0 mm 1 mps 732 mmHg 78%
01:00 +22°C° 0 mm 1 mps 732 mmHg 81%
02:00 +22°C° 0 mm 1 mps 731 mmHg 80%
03:00 +21°C° 0 mm 1 mps 731 mmHg 80%
04:00 +21°C° 0 mm 1 mps 731 mmHg 80%
05:00 +23°C° 0 mm 1 mps 731 mmHg 72%
06:00 +23°C° 0 mm 0 mps 732 mmHg 63%
07:00 +24°C° 0 mm 0 mps 732 mmHg 55%
08:00 +29°C° 0 mm 1 mps 732 mmHg 46%
09:00 +32°C° 0 mm 1 mps 732 mmHg 37%
10:00 +36°C° 0 mm 2 mps 732 mmHg 28%
11:00 +37°C° 0 mm 2 mps 732 mmHg 26%
12:00 +38°C° 0 mm 3 mps 731 mmHg 23%
13:00 +39°C° 0 mm 3 mps 731 mmHg 20%
14:00 +40°C° 0 mm 4 mps 731 mmHg 20%
15:00 +40°C° 0 mm 5 mps 730 mmHg 20%
16:00 +40°C° 0 mm 6 mps 730 mmHg 20%
17:00 +37°C° 0 mm 5 mps 730 mmHg 25%
18:00 +34°C° 0 mm 3 mps 730 mmHg 31%
19:00 +31°C° 0 mm 2 mps 730 mmHg 36%
20:00 +29°C° 0 mm 2 mps 730 mmHg 43%
21:00 +26°C° 0 mm 2 mps 730 mmHg 50%
22:00 +24°C° 0 mm 1 mps 730 mmHg 58%
23:00 +24°C° 0 mm 1 mps 730 mmHg 59%

Day after tomorrow, 31 July, Saturday

Time Temperature Precipitation Wind Pressure Humidity
00:00 +23°C° 0 mm 1 mps 730 mmHg 61%
01:00 +23°C° 0 mm 1 mps 730 mmHg 63%
02:00 +22°C° 0 mm 1 mps 730 mmHg 62%
03:00 +22°C° 0 mm 1 mps 730 mmHg 62%
04:00 +22°C° 0 mm 1 mps 730 mmHg 61%
05:00 +23°C° 0 mm 1 mps 730 mmHg 56%
06:00 +25°C° 0 mm 1 mps 730 mmHg 50%
07:00 +27°C° 0 mm 1 mps 730 mmHg 44%
08:00 +29°C° 0 mm 2 mps 730 mmHg 39%
09:00 +32°C° 0 mm 2 mps 730 mmHg 33%
10:00 +35°C° 0 mm 3 mps 730 mmHg 28%
11:00 +36°C° 0 mm 3 mps 730 mmHg 25%
12:00 +38°C° 0 mm 4 mps 729 mmHg 23%
13:00 +40°C° 0 mm 4 mps 729 mmHg 20%
14:00 +40°C° 0 mm 5 mps 729 mmHg 20%
15:00 +40°C° 0 mm 6 mps 729 mmHg 20%
16:00 +40°C° 0 mm 6 mps 728 mmHg 19%
17:00 +37°C° 0 mm 5 mps 728 mmHg 26%
18:00 +34°C° 0 mm 4 mps 728 mmHg 32%
19:00 +31°C° 0 mm 3 mps 728 mmHg 38%
20:00 +28°C° 0 mm 3 mps 728 mmHg 45%
21:00 +26°C° 0 mm 2 mps 728 mmHg 52%
22:00 +24°C° 0 mm 2 mps 728 mmHg 59%
23:00 +24°C° 0 mm 2 mps 728 mmHg 61%

1 August, Sunday

Time Temperature Precipitation Wind Pressure Humidity
00:00 +23°C° 0 mm 2 mps 729 mmHg 64%
01:00 +23°C° 0 mm 2 mps 729 mmHg 66%
02:00 +23°C° 0 mm 2 mps 728 mmHg 66%
03:00 +23°C° 0 mm 1 mps 728 mmHg 66%
04:00 +23°C° 0 mm 1 mps 727 mmHg 66%
05:00 +24°C° 0 mm 2 mps 727 mmHg 64%
06:00 +25°C° 0 mm 2 mps 727 mmHg 62%
07:00 +26°C° 0 mm 3 mps 728 mmHg 61%
08:00 +28°C° 0 mm 4 mps 728 mmHg 53%
09:00 +32°C° 0 mm 5 mps 728 mmHg 45%
10:00 +34°C° 0 mm 6 mps 728 mmHg 38%
11:00 +35°C° 0 mm 6 mps 728 mmHg 33%
12:00 +35°C° 0 mm 6 mps 728 mmHg 28%
13:00 +36°C° 0 mm 7 mps 728 mmHg 24%
14:00 +35°C° 0 mm 7 mps 728 mmHg 26%
15:00 +35°C° 0 mm 8 mps 728 mmHg 28%
16:00 +34°C° 0 mm 8 mps 728 mmHg 29%
17:00 +32°C° 0 mm 6 mps 729 mmHg 36%
18:00 +29°C° 0 mm 5 mps 729 mmHg 43%
19:00 +27°C° 0 mm 4 mps 729 mmHg 50%
20:00 +24°C° 0 mm 3 mps 729 mmHg 60%
21:00 +21°C° 0 mm 2 mps 730 mmHg 71%
22:00 +19°C° 0 mm 2 mps 730 mmHg 81%
23:00 +19°C° 0 mm 2 mps 730 mmHg 84%

2 August, Monday

Time Temperature Precipitation Wind Pressure Humidity
00:00 +18°C° 0 mm 2 mps 730 mmHg 88%
01:00 +18°C° 0 mm 2 mps 730 mmHg 91%
02:00 +18°C° 0 mm 1 mps 730 mmHg 91%
03:00 +18°C° 0 mm 1 mps 731 mmHg 91%
04:00 +18°C° 0 mm 1 mps 731 mmHg 91%
05:00 +19°C° 0 mm 1 mps 731 mmHg 83%
06:00 +21°C° 0 mm 1 mps 731 mmHg 76%
07:00 +21°C° 0 mm 2 mps 731 mmHg 68%
08:00 +25°C° 0 mm 2 mps 732 mmHg 56%
09:00 +27°C° 0 mm 2 mps 732 mmHg 44%
10:00 +30°C° 0 mm 2 mps 732 mmHg 32%
11:00 +31°C° 0 mm 2 mps 732 mmHg 28%
12:00 +34°C° 0 mm 2 mps 732 mmHg 25%
13:00 +35°C° 0 mm 3 mps 732 mmHg 21%
14:00 +35°C° 0 mm 4 mps 732 mmHg 21%
15:00 +35°C° 0 mm 4 mps 731 mmHg 22%
16:00 +35°C° 0 mm 5 mps 731 mmHg 23%
17:00 +32°C° 0 mm 4 mps 731 mmHg 28%
18:00 +29°C° 0 mm 3 mps 731 mmHg 34%
19:00 +26°C° 0 mm 2 mps 731 mmHg 40%
20:00 +24°C° 0 mm 2 mps 732 mmHg 48%
21:00 +21°C° 0 mm 2 mps 732 mmHg 56%
22:00 +19°C° 0 mm 2 mps 732 mmHg 64%
23:00 +19°C° 0 mm 2 mps 732 mmHg 67%

3 August, Tuesday

Time Temperature Precipitation Wind Pressure Humidity
00:00 +19°C° 0 mm 2 mps 732 mmHg 70%
01:00 +19°C° 0 mm 2 mps 732 mmHg 72%
02:00 +19°C° 0.1 mm 2 mps 732 mmHg 75%
03:00 +18°C° 0.1 mm 2 mps 732 mmHg 77%
04:00 +18°C° 0.1 mm 2 mps 732 mmHg 80%
05:00 +20°C° 0.3 mm 1 mps 732 mmHg 80%
06:00 +20°C° 0.3 mm 1 mps 732 mmHg 80%
07:00 +21°C° 0.3 mm 1 mps 732 mmHg 80%
08:00 +24°C° 0.2 mm 1 mps 732 mmHg 66%
09:00 +27°C° 0.2 mm 2 mps 731 mmHg 52%
10:00 +30°C° 0.2 mm 2 mps 731 mmHg 38%
11:00 +31°C° 0 mm 3 mps 731 mmHg 34%
12:00 +34°C° 0 mm 4 mps 730 mmHg 29%
13:00 +35°C° 0 mm 4 mps 730 mmHg 24%
14:00 +35°C° 0 mm 5 mps 730 mmHg 24%
15:00 +35°C° 0 mm 5 mps 729 mmHg 24%
16:00 +34°C° 0 mm 6 mps 729 mmHg 24%
17:00 +32°C° 0 mm 5 mps 729 mmHg 32%
18:00 +29°C° 0 mm 4 mps 729 mmHg 40%
19:00 +26°C° 0 mm 2 mps 729 mmHg 48%
20:00 +24°C° 0 mm 2 mps 730 mmHg 56%
21:00 +23°C° 0 mm 1 mps 730 mmHg 64%
22:00 +21°C° 0 mm 1 mps 730 mmHg 72%
23:00 +20°C° 0 mm 1 mps 730 mmHg 74%
Show more

We Need Your Consent

Meteoprog and our Service Providers may store and access personal data such as cookies, device identifiers or other similar technologies on your device and process such data to personalise content and ads, as well as provide social media features and to analyse the traffic.

  • Store and/or access information on your device

    Cookies, device identifiers or other information can be stored or accessed on your device for the purposes indicated above.

  • Personalised ads and content, ad and content measurement, audience insights, and products development

    Ads and content can be personalised based on a profile. More data can be added to better personalise ads and content. Ad and content performance can be measured. Insights about the audience who saw the ads and content can be derived. Such data can be used to develop or improve user’s experience, systems and software.

By clicking ‘I Agree’ you will allow the use of indicated cookies, device identifiers, web beacons or other similar technologies. Your settings can be changed in the browser on your device.

For certain purposes, legitimate interests may be relied on, rather than consent. You can read more about this in our Privacy and Cookie Policy.